Regional Weather Roundup
Issued by NWS

Home | Current Version | Previous Version | Text Only | Print | Product List | Glossary On
Versions: 1 2 3 4 5 6 7 8 9 10 11 12 13 14 15 16 17 18 19 20 21 22 23 24 25 26 27 28 29 30 31 32 33 34 35 36 37 38 39 40 41 42 43 44 45 46 47 48 49 50
000
ASUS46 KPQR 181610
RWROR

OREGON REGIONAL WEATHER ROUNDUP
NATIONAL WEATHER SERVICE PORTLAND OR
900 AM PDT THU SEP 18 2014

NOTE: "FAIR" INDICATES FEW OR NO CLOUDS BELOW 12,000 FEET WITH
NO SIGNIFICANT WEATHER AND/OR OBSTRUCTIONS TO VISIBILITY.

ORZ001>013-181700-
NORTHWEST OREGON


CITY           SKY/WX    TMP DP  RH WIND       PRES   REMARKS
ASTORIA        CLOUDY    61  58  90 CALM      29.81R
NEWPORT        MOSUNNY   61  59  94 CALM      29.85R
PORTLAND       LGT RAIN  61  59  93 CALM      29.82R
VANCOUVER WA   CLOUDY    61  58  90 CALM      29.82R
SCAPPOOSE      CLOUDY    62  58  86 CALM      29.81R
HILLSBORO      CLOUDY    61  61 100 SE5       29.81R
AURORA         CLOUDY    61  60  97 S3        29.83R FOG
MCMINNVILLE    CLOUDY    62  60  93 CALM      29.83R
SALEM          LGT RAIN  61  57  87 S3        29.82R
CORVALLIS      CLOUDY    63  55  77 N3        29.85R
EUGENE         CLOUDY    60  54  80 CALM      29.85R
$$

ORZ021-028-181700-
SOUTHWEST OREGON


CITY           SKY/WX    TMP DP  RH WIND       PRES   REMARKS
NORTH BEND     CLOUDY    61  61 100 CALM      29.84R
BROOKINGS      PTSUNNY   65  64  96 CALM      29.82R
ROSEBURG       LGT RAIN  60  56  86 CALM      29.85R FOG
SEXTON SUMMIT  CLOUDY    55  53  93 NW5       29.91R
MEDFORD        CLOUDY    63  56  78 NW6       29.85R
$$

ORZ009-041-181700-
COLUMBIA GORGE


CITY           SKY/WX    TMP DP  RH WIND       PRES   REMARKS
TROUTDALE      CLOUDY    63  59  87 VRB3      29.81R
THE DALLES     PTSUNNY   71  54  54 W18G25    29.73R
$$

ORZ029>031-042>050-061>064-181700-
EASTERN OREGON


CITY           SKY/WX    TMP DP  RH WIND       PRES   REMARKS
REDMOND        LGT RAIN  62  50  64 S10       29.85R
BEND           LGT RAIN  61  48  63 SW6       29.88R
KLAMATH FALLS  MOSUNNY   62  49  62 SE9       29.92R
LAKEVIEW       SUNNY     61  41  48 SE12      29.96R
HERMISTON      MOSUNNY   72  46  39 SE6       29.73R
PENDLETON      MOSUNNY   69  39  33 S5        29.76R
JOHN DAY       SUNNY     65  35  33 E3        29.86R
MEACHAM        MOSUNNY   60  41  49 CALM      29.85R
LA GRANDE      MOSUNNY   66  36  32 CALM      29.81R
BAKER CITY     SUNNY     73  39  29 S10       29.83R HAZE
BURNS          SUNNY     65  40  39 SE8       29.91R
ROME             N/A     73  39  29 SW9       29.89R
ONTARIO        CLOUDY    71  52  50 CALM      29.81R
$$



USA.gov is the U.S. government's official web portal to all federal, state and local government web resources and services.